This is the latest recevied weather packets stored in our database for station/object N7CEE-2. If no packets are shown the sender has not sent any weather packets the latest 10 day(s).
| Time | Temp. | Humidity | Pressure | Rain* | Wind** | Luminosity | Snow |
|---|---|---|---|---|---|---|---|
| 1777822152 | 27.22° C | 32% | 1014.4 hPa | 0 mm | - | 231 W/m² | - |
| 1777821849 | 27.22° C | 32% | 1014.4 hPa | 0 mm | - | 218 W/m² | - |
| 1777821546 | 27.22° C | 32% | 1014.3 hPa | 0 mm | - | 215 W/m² | - |
| 1777821245 | 27.22° C | 33% | 1014.1 hPa | 0 mm | - | 230 W/m² | - |
| 1777820941 | 26.67° C | 33% | 1014.5 hPa | 0 mm | - | 198 W/m² | - |
| 1777820637 | 26.67° C | 33% | 1014.4 hPa | 0 mm | - | 214 W/m² | - |
| 1777820334 | 26.67° C | 32% | 1014.3 hPa | 0 mm | - | 199 W/m² | - |
| 1777820032 | 26.67° C | 32% | 1014.3 hPa | 0 mm | - | 162 W/m² | - |
| 1777819728 | 26.67° C | 33% | 1014.3 hPa | 0 mm | - | 169 W/m² | - |
| 1777819427 | 26.67° C | 33% | 1014.3 hPa | 0 mm | - | 155 W/m² | - |
| 1777819123 | 26.67° C | 33% | 1014.3 hPa | 0 mm | - | 143 W/m² | - |
| 1777818820 | 26.67° C | 33% | 1014.3 hPa | 0 mm | - | 150 W/m² | - |
| 1777818517 | 26.67° C | 33% | 1014.3 hPa | 0 mm | - | 150 W/m² | - |
| 1777818214 | 26.11° C | 33% | 1013.9 hPa | 0 mm | - | 137 W/m² | - |
| 1777817910 | 26.11° C | 33% | 1014.1 hPa | 0 mm | - | 120 W/m² | - |
| 1777817608 | 26.11° C | 33% | 1014 hPa | 0 mm | - | 119 W/m² | - |
| 1777817304 | 26.11° C | 33% | 1014.4 hPa | 0 mm | - | 119 W/m² | - |
| 1777817001 | 26.11° C | 33% | 1014.4 hPa | 0 mm | - | 111 W/m² | - |
| 1777816697 | 25.56° C | 33% | 1014 hPa | 0 mm | - | 101 W/m² | - |
| 1777816395 | 25.56° C | 34% | 1014.3 hPa | 0 mm | - | 78 W/m² | - |
| 1777816093 | 25.56° C | 34% | 1014.3 hPa | 0 mm | - | 69 W/m² | - |
| 1777815790 | 25.56° C | 34% | 1014 hPa | 0 mm | - | 69 W/m² | - |
| 1777815487 | 25.56° C | 34% | 1014 hPa | 0 mm | - | 58 W/m² | - |
| 1777815185 | 25.56° C | 34% | 1013.7 hPa | 0 mm | - | 50 W/m² | - |
| 1777814881 | 25.56° C | 34% | 1013.8 hPa | 0 mm | - | 44 W/m² | - |
* Rain latest hour (hover to see other rain measurements)
** Current wind speed in m/s (hover to see current wind gust speed)